Lid_Strength_Index
12 12 12 12 13 13 14 14 17 14 14 11 9 9 8 7 7 7 7 7 8 9 9 9 10 10 10 11 10 11 11 11 11 11 11 11 11 11 10 10 10 10 10 10
15 12 12 13 12 12 13 12 12 11 13 8 8 7 7 7 7 7 7 7 7 8 10 10 10 10 10 10 10 10 11 11 11 10 11 11 11 11 10 10 11 10 10 10
17 13 13 17 14 12 12 11 11 13 11 9 8 8 7 8 7 6 6 6 8 9 10 10 10 10 10 10 10 11 11 11 10 11 11 12 11 10 11 12 11 11 11 11
16 14 20 13 10 10 10 10 9 9 8 8 8 7 7 7 7 7 6 6 7 9 9 10 10 10 11 11 11 11 11 11 11 11 12 11 11 12 12 12 12 12 11 11
17 17 14 12 10 10 11 11 8 8 8 7 7 8 10 8 6 6 6 7 8 9 9 10 10 10 11 12 11 11 12 12 12 12 12 12 12 13 12 12 12 12 11 12
15 18 19 13 9 8 8 14 8 7 8 8 8 12 10 7 6 6 6 7 9 9 10 11 11 11 12 12 12 12 12 12 12 11 12 12 13 12 12 12 11 11 12 12
16 17 14 9 8 7 14 13 7 7 7 8 9 8 8 6 6 6 7 9 9 10 11 11 11 11 12 13 14 12 12 11 11 12 13 13 13 13 13 13 13 13 13 13
15 17 18 7 8 11 9 7 7 7 7 8 8 7 8 8 9 9 9 10 10 11 12 12 12 12 13 14 13 12 12 12 13 13 12 12 13 13 13 14 14 13 13 14
13 13 8 6 7 6 6 7 7 7 7 8 8 8 9 10 10 10 10 11 11 12 12 12 12 12 14 14 12 12 13 13 14 13 13 13 13 14 14 14 15 14 14 16
11 10 9 7 6 6 5 6 6 6 6 7 9 9 10 10 11 11 11 11 12 12 13 13 13 13 13 12 13 14 15 16 14 17 14 13 13 13 17 20 19 17 19 21
11 9 8 7 6 6 6 5 5 5 6 7 8 9 10 10 10 10 11 12 12 13 14 15 14 13 12 12 13 14 15 18 18 20 20 18 16 18 16 19 18 20 20 20
12 8 8 8 7 5 6 6 5 5 7 7 8 9 9 10 10 10 11 12 13 14 14 14 13 13 13 13 14 14 14 16 19 20 22 22 20 19 12 13 13 11 11 15
8 6 6 6 5 5 6 6 6 6 7 8 8 9 9 10 11 11 11 12 13 14 14 13 14 14 14 14 14 14 15 15 18 19 22 22 23 22 22 17 11 11 11 11
5 6 8 6 7 5 5 5 5 5 6 7 8 8 10 11 12 13 14 15 15 14 15 16 17 19 17 16 17 18 20 18 21 22 23 23 23 23 24 22 22 21 14 13
5 5 6 6 6 6 5 5 5 7 7 8 10 11 12 14 16 18 18 17 17 18 19 18 19 22 22 20 21 23 20 23 23 23 22 22 22 23 23 23 23 23 22 18
6 6 7 7 7 7 6 6 7 8 9 11 12 13 15 16 17 18 19 17 18 19 22 21 21 23 23 22 23 22 22 21 20 20 21 22 22 22 23 23 23 23 24 23
7 9 8 7 8 7 6 7 8 10 11 12 14 14 14 15 17 20 22 21 20 21 22 21 21 22 21 22 20 18 19 20 19 19 18 18 21 21 22 22 22 24 24 24
5 5 5 6 6 7 7 8 9 10 11 13 12 13 16 17 18 21 22 21 21 22 22 21 20 20 20 20 18 16 15 16 18 19 18 20 19 20 20 19 22 23 23 22
4 5 5 5 6 7 8 9 11 11 12 12 14 17 19 20 20 20 19 21 22 21 21 19 16 17 16 17 16 17 18 19 18 17 17 18 19 19 19 21 22 23 23 22
6 5 5 6 7 8 11 12 11 13 13 15 16 17 19 20 19 20 19 20 18 17 16 16 16 16 15 15 16 17 17 19 18 19 19 19 20 20 20 20 19 22 23 24
7 7 9 11 12 13 12 12 13 15 16 15 16 17 18 20 20 20 20 18 17 17 15 17 16 16 15 17 19 19 20 21 20 19 18 19 20 19 20 21 22 23 24 24
11 12 13 14 14 15 14 14 14 16 16 18 18 17 18 20 21 22 21 18 16 17 16 16 16 18 16 18 17 21 18 17 18 18 18 18 19 20 20 22 22 20 20 21
14 14 14 14 14 15 16 16 16 16 17 17 17 18 18 18 17 18 18 15 15 17 15 16 19 21 21 21 22 21 18 19 18 18 18 18 18 18 21 22 20 22 22 21
14 14 14 14 14 15 16 18 16 18 18 19 19 18 16 18 21 16 16 16 17 16 18 18 19 19 21 21 21 20 17 17 17 17 17 16 20 21 22 23 25 26 26 27
13 13 14 14 14 15 15 15 17 18 17 17 17 18 16 15 18 16 15 15 16 17 18 20 18 18 20 21 20 20 18 17 16 17 18 19 21 23 24 25 25 26 27 28
13 13 12 12 13 13 14 14 15 15 15 18 20 20 20 16 15 15 16 16 17 17 17 20 20 20 22 21 20 20 16 15 16 16 19 22 24 25 26 26 27 28 30 30
12 12 12 12 12 12 13 14 14 15 15 15 17 20 17 15 14 14 15 16 18 20 18 15 17 17 18 20 19 16 15 15 18 20 24 25 26 27 26 27 29 30 30 30